                ,  0.721,  0.869,  1.017,  1.165,  1.312,  1.460,  1.608,  1.756,  1.904,  2.052,  2.199,  2.347,  2.495,  2.643,  2.791,  2.938,  3.086,  3.234,  3.382,  3.530,  3.677,  3.825,  3.973,  4.121,  4.269,  4.417,  4.564,  4.712,  4.860,  5.008,  5.156,  5.303
1999/07/25 00:00,  999.0,   37.2,   36.0,   40.4,   45.2,   47.0,  999.0,   39.7,   37.6,   34.2,  999.0,   35.5,   38.7,   39.9,   26.0,   28.2,   25.7,   26.8,   30.9,   27.3,   25.1,   24.2,  999.0,   24.7,   23.6,   26.9,   21.2,   17.8,   27.9,   22.3,   23.5,   23.1
1999/07/25 00:10,   33.9,   34.6,   37.0,   37.7,   40.7,   43.3,  999.0,  999.0,  999.0,   37.7,  999.0,   33.0,   48.1,   35.3,   32.9,   33.7,   36.2,   27.1,   29.9,   28.8,   26.4,   31.2,   28.8,   20.7,   21.3,   27.1,   18.6,   32.5,   26.8,   26.3,   21.1,   18.6
1999/07/25 00:20,   31.3,   31.1,   33.6,   38.7,   38.3,   34.7,   32.8,  999.0,   35.6,   36.0,   37.9,   33.3,   42.8,   31.7,   33.8,   36.7,   33.4,   25.5,   26.6,   26.9,   26.5,   30.7,   25.4,   23.5,   24.1,   28.3,   25.0,   26.2,   31.3,   25.8,   19.4,   22.9
1999/07/25 00:30,   25.9,   27.6,   28.7,   38.0,   39.0,   33.0,   30.0,   34.6,   37.8,   38.5,   36.9,   34.1,   39.0,   26.4,   28.8,   32.8,   28.5,   29.5,   29.8,   24.9,   22.4,   21.2,   21.2,   24.0,   22.8,   28.5,   28.9,   26.9,   27.4,   18.7,   21.9,   22.7
1999/07/25 00:40,   24.6,   27.3,   27.4,   36.8,   42.1,   32.8,   31.9,   30.8,   33.0,   34.3,   39.2,   33.0,   32.5,   25.5,   22.4,   27.9,   31.4,   28.4,   26.6,   20.5,   23.1,   22.2,   23.7,   21.4,   16.2,   26.8,   30.8,   21.5,   19.9,   18.8,   20.9,   25.6
1999/07/25 00:50,   34.9,   30.8,   34.9,   39.3,   37.8,   36.8,   31.4,   25.3,   25.6,   36.4,   32.4,   32.0,   28.9,   24.1,   22.7,   26.0,   29.6,   33.3,   25.3,   23.8,   25.1,   21.6,   24.4,   23.5,   21.8,   24.5,   25.8,   25.4,   22.5,   18.0,   23.2,   19.8
1999/07/25 01:00,   40.1,   37.9,   32.2,   38.9,   35.8,   30.7,   33.0,   27.3,   27.3,   29.9,   28.1,   32.6,   26.0,   27.1,   25.7,   31.1,   27.2,   29.5,   25.7,   20.2,   25.1,   36.5,   33.1,   24.6,   19.2,   25.0,   18.8,   25.4,   18.9,   20.4,   19.1,   15.2
1999/07/25 01:10,   36.2,   32.6,   36.2,   36.8,   41.1,   38.0,   27.6,   27.9,   32.2,   27.2,   24.2,   29.2,   27.6,   23.9,   25.7,   23.6,   25.9,   27.5,   24.6,   27.7,   28.7,   29.3,   25.9,   19.5,   23.0,   28.7,   23.1,   23.6,   20.8,   21.4,   20.2,   18.3
1999/07/25 01:20,   34.2,   39.2,   37.5,   40.3,   37.9,   38.3,   36.8,   33.3,   31.8,   30.8,   26.3,   30.0,   26.0,   30.3,   25.0,   23.0,   26.0,   31.0,   27.7,   26.7,   26.0,   20.6,   20.3,   19.9,   20.1,   26.3,   25.7,   14.9,   20.3,   24.4,   24.2,  999.0
1999/07/25 01:30,   34.3,   35.9,   34.3,   40.9,   38.9,   33.7,   38.4,   41.3,   38.9,   34.4,   34.8,   32.4,   30.5,   18.0,   20.4,   30.1,   31.6,   25.4,   24.6,   28.0,   30.3,   23.5,   25.6,   21.3,   24.7,   26.8,   25.5,   19.3,   17.7,   21.9,   22.1,   19.8
1999/07/25 01:40,   33.4,   36.0,   37.7,   41.5,   42.5,   34.9,   38.3,   37.5,   35.6,   36.3,   32.0,   29.6,   21.8,   26.7,   33.0,   31.0,   32.8,   26.3,   30.1,   29.6,   28.6,   28.5,   28.0,   22.0,   20.6,   22.5,   19.8,   18.4,   20.4,   22.1,   21.7,   19.7
1999/07/25 01:50,   32.7,   35.8,   40.8,   39.1,   37.6,   43.1,   33.4,   33.2,   32.0,   26.8,   33.6,   35.7,   21.5,   34.9,   34.3,   30.1,   31.1,   28.9,   31.3,   27.7,   24.9,   28.1,   29.2,   22.9,   19.4,   19.6,   20.5,   19.9,   20.2,   19.4,  999.0,   21.1
1999/07/25 02:00,   31.1,   34.1,   39.5,   40.8,   36.1,   33.8,   24.9,   32.2,   34.8,   27.8,   27.4,   34.3,   26.3,   32.2,   29.7,   32.8,   32.1,   25.7,   28.1,   24.6,   26.1,   30.0,   31.5,   29.4,   23.8,   23.7,   19.6,   22.4,   19.2,   19.4,   19.3,   22.5
1999/07/25 02:10,   32.6,   32.2,   37.3,   46.0,   37.5,   28.5,   19.0,   25.6,   36.0,   30.7,   32.6,   29.0,   26.1,   33.5,   22.1,   22.2,   27.5,   24.9,   25.0,   30.2,   26.3,   31.7,   32.1,   32.9,   32.4,   25.3,   27.5,   19.2,   21.0,   19.8,   18.5,   24.8
1999/07/25 02:20,   29.1,   28.0,   32.8,   41.7,   38.3,   30.7,   21.2,   21.4,   29.8,   29.0,   30.3,   30.2,   31.6,   27.4,   19.6,   24.0,   23.6,   22.4,   28.2,   31.1,   32.9,   33.8,   31.8,   32.4,   30.2,   25.1,   26.9,   25.0,   24.9,   22.6,   31.9,   25.7
1999/07/25 02:30,   25.9,   30.7,   36.5,   38.4,   32.8,   31.0,   27.2,   24.4,   21.7,   27.3,   28.3,   31.3,   33.6,   20.1,   30.1,   25.9,   24.9,   22.8,   30.3,   30.7,   35.1,   31.7,   31.0,   33.6,   28.8,   23.7,   31.5,   25.7,   21.7,   28.6,   32.2,   28.7
1999/07/25 02:40,   30.5,   34.5,   40.7,   32.0,   33.3,   31.4,   30.4,   29.7,   29.0,   27.3,   26.0,   26.6,   28.5,   30.1,   27.4,   27.4,   24.0,   26.9,   25.8,   25.6,   28.4,   30.6,   30.7,   24.6,   28.2,   26.3,  999.0,   18.6,   18.1,   23.4,   24.1,   23.2
1999/07/25 02:50,   30.4,   33.3,   41.1,   38.2,   37.0,   35.3,   31.0,   26.6,   34.8,   30.9,   27.1,   24.9,   36.6,   26.9,   25.0,   28.1,   23.2,   33.7,   31.4,   24.5,   29.2,   26.7,   26.2,   29.3,   26.0,   23.3,   18.3,   18.5,   18.6,   22.5,   24.0,   18.3
1999/07/25 03:00,   28.8,   31.9,   33.7,   38.9,   34.0,   36.5,   33.6,   29.9,   32.8,   35.3,   30.9,   27.8,   36.7,   25.2,   28.5,   22.2,   22.3,   26.9,   27.9,   27.2,   28.7,   28.4,   21.1,   21.9,   23.1,   24.8,   19.9,   19.4,   21.6,   24.5,   25.4,   20.7
1999/07/25 03:10,   27.0,   31.3,   32.4,   35.6,   33.1,   31.6,   34.4,   33.2,   34.5,   27.6,   24.2,   22.6,   30.9,   29.1,   25.4,   24.0,   25.5,   31.9,   27.5,   22.9,   23.3,   23.4,   17.7,   17.9,   20.8,   28.1,   26.5,   22.6,   19.5,   21.3,   22.2,   19.6
1999/07/25 03:20,   25.8,   31.5,   33.2,   33.2,   36.1,   31.2,   35.5,   36.3,   34.8,   29.2,   30.0,   26.8,   29.6,   26.8,   25.1,   22.8,   25.4,   25.4,   26.1,   26.9,   26.6,   24.8,   18.4,   18.3,   19.0,   24.2,   27.1,   22.7,   20.9,   20.9,   24.8,   28.2
1999/07/25 03:30,   25.9,   31.6,   34.1,   31.5,   31.9,   30.6,   32.8,   32.8,   31.1,   30.4,   28.6,   24.5,   19.2,   27.6,   25.3,   23.7,   26.2,   26.0,   21.5,   24.0,   28.0,   26.9,   19.0,   18.4,   19.3,   29.2,   25.3,   23.3,   23.2,   28.1,   25.7,   28.9
1999/07/25 03:40,   28.1,   32.9,   36.1,   30.3,   31.9,   33.1,   33.7,   31.9,   30.8,   34.7,   26.6,   19.3,   26.7,   23.1,   27.0,   20.7,   23.4,   26.6,   22.4,   26.6,   27.5,   30.5,   24.6,   18.9,   21.3,   25.4,   22.7,   22.9,   25.1,   28.0,   29.6,   26.3
1999/07/25 03:50,   29.2,   37.6,   33.4,   33.0,   31.5,   26.3,   24.6,   31.0,   31.5,   30.8,   34.3,   29.6,   25.4,   29.2,   23.2,   23.1,   17.6,   17.7,   28.3,   24.8,   25.0,   27.2,   25.2,   24.3,   17.3,   22.0,   27.1,   25.9,   24.2,   23.3,   25.4,   25.6
1999/07/25 04:00,   28.2,   34.1,   30.1,   33.1,   32.6,   30.9,   28.0,   30.2,   33.3,   29.6,   35.6,   32.8,   30.4,   27.0,   28.7,   28.8,   23.3,   22.5,   26.3,   27.9,   25.6,   23.9,   23.5,   25.3,   18.7,   24.4,   31.7,   26.4,   28.0,   27.9,   25.8,   26.7
1999/07/25 04:10,   33.5,   34.9,   33.5,   32.2,   37.1,   36.2,   33.4,   31.5,   39.0,   30.9,   32.2,   34.4,   34.4,   28.5,   29.0,   29.9,   24.7,   25.1,   24.7,   24.2,   25.4,   28.7,   22.6,   21.5,   24.2,   22.8,   24.3,   26.4,   25.0,   27.7,   26.5,   29.7
1999/07/25 04:20,   25.4,   34.1,   41.4,   38.2,   40.7,   36.1,   32.9,   36.2,   35.9,   32.6,   32.2,   30.5,   30.5,   27.7,   35.9,   27.5,   27.4,   30.3,   27.9,   27.2,   23.4,   27.3,   27.8,   24.3,   24.0,   23.6,   24.8,   23.1,   34.4,   37.4,   33.7,   30.5
1999/07/25 04:30,   29.6,   38.9,   38.5,   38.1,   38.4,   33.8,   31.4,   34.5,   36.4,   31.8,   30.5,   30.5,   32.0,   33.8,   36.0,   33.1,   19.3,   28.4,   28.4,   24.0,   30.7,   26.0,   21.1,   25.1,   24.0,   20.4,   27.8,   30.7,   36.0,   33.8,   36.2,   29.8
1999/07/25 04:40,   34.6,   37.3,   38.4,   36.3,   38.1,   37.1,   35.9,   34.1,   35.2,   29.2,   27.4,   28.5,   28.2,   30.6,   32.3,   35.9,   30.0,   31.8,   22.7,   28.4,   30.9,   24.2,   21.3,   20.7,   25.5,   25.6,   30.2,   31.5,   35.4,   28.2,   34.1,   23.7
1999/07/25 04:50,   32.8,   35.9,   34.9,   37.1,   37.1,   41.7,   40.3,   31.0,   34.4,   29.7,   29.2,   34.0,   29.8,   28.6,   32.2,   30.1,   26.2,   29.1,   26.2,   28.3,   23.0,   25.0,   24.9,   29.5,   24.3,   26.7,   25.0,   29.5,   31.2,   28.5,   28.0,   24.8
1999/07/25 05:00,   30.9,   30.0,   33.4,   34.6,   34.7,   33.3,   35.4,   37.6,   34.3,   30.6,   33.1,   32.6,   22.8,   25.4,   26.8,   27.5,   25.4,   26.1,   29.0,   28.8,   27.8,   29.3,   29.2,   31.8,   25.2,   23.9,   22.1,   22.9,   24.0,   27.1,   24.6,   23.7
1999/07/25 05:10,   31.4,   36.0,   33.1,   32.7,   40.8,   38.8,   34.4,   36.0,   35.8,   32.9,   35.2,   36.0,   34.0,   40.1,   36.8,   32.4,   26.1,   30.8,   29.0,   27.6,   27.0,   25.3,   25.2,   26.7,   28.0,   24.2,   18.6,   22.5,   25.0,   24.2,   26.5,   21.3
1999/07/25 05:20,   36.0,   36.6,   34.6,   37.8,   37.8,   37.5,   41.2,   36.9,   38.2,   31.6,   26.8,   24.7,   26.9,   33.1,   36.3,   30.4,   30.2,   27.8,   27.7,   29.0,   24.5,   21.5,   26.9,   27.7,   26.1,   24.4,   25.5,   23.6,   23.5,   29.2,   18.4,   23.2
1999/07/25 05:30,   35.3,   31.3,   37.4,   34.8,   36.7,   38.7,   39.3,   33.3,   28.0,   26.4,   30.2,   37.1,   33.0,   29.9,   31.2,   30.1,   29.7,   28.2,   26.6,   26.0,   28.9,   28.4,   25.9,   26.9,   29.0,   28.9,   26.3,   26.8,   25.9,   24.9,   26.3,   30.0
1999/07/25 05:40,   29.8,   33.8,   39.6,   36.3,   37.2,   35.6,   37.7,   36.9,   37.8,   39.5,   36.7,   39.2,   36.3,   39.4,   41.0,   41.3,   37.4,   35.5,   36.8,   48.2,   48.0,   52.5,   50.8,   49.6,   48.9,   47.3,   42.9,   41.8,   35.1,   33.3,   31.1,   32.0
1999/07/25 05:50,   33.0,   42.7,   41.0,   40.6,   41.7,   37.8,  999.0,   30.4,   35.6,   37.0,  999.0,   36.4,  999.0,   40.1,   33.2,   37.1,   29.4,   29.0,  999.0,   37.3,   34.5,  999.0,   27.5,   27.5,   29.3,   33.2,   30.8,   26.6,   23.3,   27.5,   27.8,   26.7
1999/07/25 06:00,   40.5,   40.8,   43.3,   40.1,   38.5,   36.3,   31.1,   30.3,   27.6,   29.7,   35.2,   36.1,   36.4,   34.8,   31.9,   33.2,   33.0,   36.9,   34.0,   34.0,   35.8,   28.8,   27.6,   24.9,   24.3,   24.8,   20.3,   22.7,   20.7,   25.7,   28.1,   30.5
1999/07/25 06:10,   32.9,   39.4,   42.0,   39.1,   36.8,   31.1,   29.9,   28.5,   25.6,   29.3,   32.7,   30.0,   34.4,   30.5,   31.6,   23.0,   26.5,   30.0,   37.7,   37.2,   32.0,   30.4,   30.8,   22.2,   26.6,   26.9,   22.9,   18.8,   21.3,   24.1,   21.8,   24.5
1999/07/25 06:20,   37.5,   46.9,   43.6,   41.7,   34.1,   35.7,   31.4,   32.0,   33.9,   31.1,   31.7,   25.9,   29.6,   33.6,   23.6,   25.3,   23.2,   22.1,   31.8,   33.4,   30.0,   28.0,   22.4,   23.9,   25.4,   27.0,   28.8,   28.0,   23.6,   20.7,   26.8,   27.3
1999/07/25 06:30,   42.2,   45.0,   39.0,   35.5,   35.2,   35.6,   33.8,   30.8,   32.5,   33.2,   28.4,   21.4,   23.0,   27.8,   29.8,   29.6,   22.7,   20.6,   20.5,   21.0,   21.8,   20.4,   27.3,   28.7,   26.7,   19.6,   21.1,   22.0,   25.0,   24.3,   21.9,   25.7
1999/07/25 06:40,   41.0,   47.4,   39.0,   38.6,   31.0,   31.6,   40.1,   38.2,   34.3,   34.5,   30.9,   26.2,   25.9,   22.8,   23.7,   23.9,   27.2,   29.7,   25.6,   26.0,   28.6,   16.7,  999.0,   25.8,   21.2,   16.4,   17.8,   16.6,   19.7,   23.2,   26.4,   26.7
1999/07/25 06:50,   46.3,   42.8,   36.5,   38.1,   29.8,   30.5,   31.4,   36.8,   35.1,   33.1,   34.3,   31.6,   32.3,   30.2,   24.1,   21.4,   27.3,   26.4,   25.3,   23.1,   21.0,   18.3,   20.8,   20.0,   19.9,   18.2,   19.0,   24.0,   28.5,   21.8,   20.9,   20.6
1999/07/25 07:00,   45.7,   42.6,   37.8,   36.8,   33.4,   30.9,   34.9,   33.7,   35.6,   34.9,   33.2,   34.9,   33.2,   32.3,   24.4,   19.2,   17.6,   26.6,   27.9,   27.8,   23.1,   18.4,   18.8,   19.5,   21.3,   24.1,   17.7,   21.9,   24.9,   22.8,   20.5,   22.4
1999/07/25 07:10,   44.0,   41.0,   41.1,   38.5,   38.6,   36.5,   36.4,   34.3,   35.7,   36.9,   34.4,   32.2,   33.5,   29.9,   28.7,   23.4,   22.2,   21.2,   24.6,   24.6,   21.3,   26.1,   23.2,   19.2,   18.6,   20.7,   22.6,   22.6,   23.8,   20.5,   20.0,   20.3
1999/07/25 07:20,   44.6,   33.3,   30.8,   28.3,   33.3,   34.1,   32.7,   33.8,   30.8,   33.6,   34.2,   27.4,   26.7,   24.3,   24.6,   24.5,   27.0,   25.5,   23.0,   23.6,   23.9,   28.2,   23.7,   24.8,   22.8,   22.9,   22.1,   23.0,   21.1,   20.3,   21.8,   20.7
1999/07/25 07:30,   37.1,   38.8,   33.2,   29.1,   30.1,   33.5,   29.8,   27.1,   31.9,   34.1,   38.7,   29.8,   25.2,   30.0,   30.0,   31.1,   31.9,   30.7,   26.5,   22.3,   24.5,   23.9,   22.3,   21.1,   21.7,   23.3,   21.9,   23.2,   25.0,   22.5,   20.6,   23.2
1999/07/25 07:40,   38.7,   36.8,   36.7,   29.1,   39.4,   43.9,   33.6,   36.0,   35.4,   40.0,   39.4,   31.6,   28.8,   30.6,   29.1,   28.5,   28.1,   25.5,   27.5,   26.4,   25.9,   23.4,   22.8,   22.9,   23.7,   22.8,   18.8,   26.9,   26.8,   25.0,   25.6,   25.3
1999/07/25 07:50,   40.9,   38.1,   42.5,   37.6,   40.8,   38.6,   32.7,   33.8,   32.1,   34.0,   36.3,   33.6,   30.8,   33.7,   27.1,   25.3,   24.6,   23.0,   22.6,   21.6,   22.0,   21.2,   20.9,   22.1,   23.0,   20.2,   23.2,   24.4,   21.4,   25.6,   23.1,   21.2
1999/07/25 08:00,   40.5,   40.3,   41.5,   39.4,   37.7,   38.2,   36.3,   35.0,   32.1,   27.9,   29.6,   33.8,   33.7,   30.0,   26.2,   23.6,   20.8,   23.0,   22.5,   24.3,   22.7,   23.8,   25.6,   24.5,   20.0,   21.6,   18.0,   22.6,   19.9,  999.0,   19.7,   21.0
1999/07/25 08:10,   42.6,   38.3,   36.4,   35.1,   37.6,   38.5,   33.2,   34.4,   28.6,   31.3,   30.9,   35.0,   29.5,   27.9,   27.1,   26.3,   34.8,   25.6,   24.4,   28.4,   23.3,   17.9,   15.7,   24.2,   24.9,   23.6,   22.2,   20.4,   21.0,   19.5,   16.7,   24.1
1999/07/25 08:20,   43.0,   35.1,   31.5,   35.6,   35.2,   41.6,   37.6,   36.5,   35.6,   36.9,   34.3,   33.8,   33.6,   28.1,   30.3,   28.7,   25.3,   26.1,   31.2,   25.2,   21.5,   20.4,   17.9,   22.5,   25.6,   26.6,   24.1,   21.0,   18.8,   19.4,   18.1,   21.9
1999/07/25 08:30,   45.0,   38.2,   33.8,   37.8,   35.3,   40.5,   37.0,   29.8,   31.8,   40.0,   35.5,   35.2,   32.4,   29.2,   27.7,   23.0,   23.5,   30.0,   29.9,   25.2,   26.5,   21.1,   22.6,   24.7,   20.4,   19.8,   21.0,   20.3,   18.3,   19.0,   17.7,   21.6
1999/07/25 08:40,   46.2,   47.5,   33.9,   40.4,   40.4,   40.3,   35.9,   38.5,   37.9,   29.7,   30.9,   28.2,   23.7,   30.3,   31.6,   25.4,   22.6,   22.7,   23.7,   24.2,   27.4,   27.8,   26.7,   24.3,   21.5,   25.2,   24.7,   25.8,   23.4,   21.0,   20.2,   21.1
1999/07/25 08:50,   48.2,   45.2,   34.9,   35.7,   40.7,   41.2,   40.6,   37.6,   34.1,   31.4,   28.3,   27.2,   23.3,   21.9,   29.1,   30.1,   27.6,   22.9,   27.5,   25.8,   30.9,   31.9,   24.4,   20.6,   20.9,   23.2,   24.4,   27.1,   23.8,   26.2,   24.9,   22.5
1999/07/25 09:00,   43.4,   45.4,   35.9,   35.0,   39.4,   44.0,   39.0,   40.6,   33.9,   31.6,   35.3,   29.6,   27.5,   24.1,   28.7,   35.6,   38.0,   34.4,   36.1,   29.8,   25.0,   30.5,   24.7,   21.0,   18.5,   17.2,   19.7,   25.0,   25.3,   25.6,   22.8,   21.4
1999/07/25 09:10,   48.3,   49.1,   41.7,   36.9,   45.3,   41.0,   40.4,   38.2,   35.8,   33.0,   34.2,   33.5,   33.0,   30.5,   27.2,   37.7,   35.8,   30.1,   36.2,   22.0,   22.4,   26.6,   24.6,   19.1,   19.3,   16.2,   20.1,   28.8,   25.0,   25.4,   20.0,   20.2
1999/07/25 09:20,   49.0,   50.2,   51.5,   44.2,   43.2,   43.2,   44.1,   35.4,   36.4,   41.2,   37.8,   28.4,   28.2,   28.5,   34.9,   39.0,   37.9,   25.8,   31.0,   31.6,   19.8,   30.6,   26.7,   20.2,   18.9,  999.0,   19.8,   22.1,   23.5,   20.0,   24.3,   19.1
1999/07/25 09:30,   47.2,   48.2,   53.7,   50.1,   45.0,   43.6,   39.8,   38.8,   44.4,   41.0,   34.0,   31.9,   25.5,   28.8,   38.6,   42.6,   41.8,   29.5,   30.2,   33.9,   21.0,   21.9,   23.1,   21.1,   22.8,   19.8,   21.2,   23.0,   22.5,   23.4,   23.2,   18.6
1999/07/25 09:40,   47.1,   47.1,   51.5,   58.3,   51.6,   43.6,   43.6,   43.6,   41.3,   35.5,   32.6,   25.6,   28.2,   29.1,   32.2,   43.0,   34.3,   25.1,   24.5,   27.9,   23.5,   23.3,   24.6,   19.6,   22.8,   17.3,   20.2,   20.3,   31.0,   28.1,   27.5,   26.2
1999/07/25 09:50,   47.5,   46.6,   44.9,   49.1,   53.4,   43.2,   43.0,   38.6,   34.0,   32.4,   34.4,   31.7,   35.7,   31.9,   36.1,   35.4,   32.6,   28.3,   30.2,   29.9,   24.5,   21.6,   26.3,   16.9,   18.5,   20.6,   26.6,   19.7,   26.1,   28.8,   23.4,   20.8
1999/07/25 10:00,   44.7,   42.5,   43.6,   48.6,   53.7,   48.1,   54.3,   39.4,   35.5,   30.7,   32.7,   29.5,   35.3,   32.2,   34.0,   36.9,   35.2,   22.6,   29.9,   33.3,   21.7,   25.8,   22.7,   17.2,  999.0,   23.9,   26.9,   19.4,   20.9,   26.4,   23.6,   26.1
1999/07/25 10:10,   47.2,   49.2,   51.3,   51.9,   46.5,   40.4,   45.3,   36.6,   38.7,   40.0,   36.9,   30.2,   34.6,   35.4,   31.5,   37.1,   38.8,   32.5,   22.6,   33.4,   26.1,   25.5,   28.6,   16.4,   18.3,   24.0,   24.0,   20.7,   21.6,   24.1,   25.9,   29.0
1999/07/25 10:20,   45.5,   51.1,   54.3,   51.6,   42.8,   46.7,   46.4,   36.9,   38.9,   38.0,   39.4,   38.0,   36.1,   31.5,   31.9,   39.9,   27.0,   31.4,   23.5,   32.4,   33.5,   27.6,   24.6,   18.6,   19.4,   19.6,   20.6,   23.5,   24.4,   24.4,   25.6,   24.2
1999/07/25 10:30,   49.3,   50.3,   54.3,   55.6,   49.1,   49.5,   39.4,   32.4,   40.7,   36.9,   37.4,   39.9,   33.7,   39.0,   29.1,   45.1,   31.6,   27.0,   30.0,   36.6,   30.6,   27.2,   25.7,   18.2,   18.6,   16.5,   18.6,   23.1,   26.9,   24.2,   21.4,   26.7
1999/07/25 10:40,   48.4,   51.1,   52.4,   57.5,   52.8,   49.0,   43.4,   41.0,   38.9,   38.9,   34.1,   36.0,   37.3,   37.6,   31.9,   32.2,   28.7,   31.3,   31.5,   31.3,   23.5,   25.3,   18.2,   18.0,   20.0,   22.2,   20.6,   28.4,   28.8,   20.9,   16.3,   15.0
1999/07/25 10:50,   48.1,   51.5,   53.8,   52.9,   54.6,   47.4,   46.8,   35.9,   35.5,   36.1,   32.2,   32.1,   37.5,   33.4,   25.4,   28.8,   32.5,   27.0,   28.5,   33.4,   19.0,   19.7,   20.2,   19.9,   19.3,   20.7,   26.4,   27.2,   26.0,   32.3,   19.8,  999.0
1999/07/25 11:00,   44.8,   46.3,   51.5,   56.7,   56.0,   49.7,   46.0,   39.4,   39.1,   35.8,   35.2,   44.1,   39.9,   32.2,   32.1,   31.1,   34.6,   18.9,   26.5,   37.4,   24.1,   20.9,   23.7,   21.0,   18.1,   19.7,   25.1,   28.5,   28.6,   25.7,   19.0,   16.4
1999/07/25 11:10,  999.0,   51.8,   53.6,   57.0,   59.1,   54.0,   49.0,   39.9,   42.6,   37.2,   37.9,   45.2,   46.4,   35.4,   29.9,   27.0,  999.0,   17.3,   31.7,   40.1,   26.0,   22.5,   21.1,   24.5,   18.1,   18.2,   21.0,   29.8,   30.5,   22.6,   15.2,   17.2
1999/07/25 11:20,   45.9,   50.9,   53.0,   58.0,   59.9,   51.0,   44.1,   37.1,   39.8,   36.3,   36.1,   35.8,   43.4,   40.0,   30.8,   25.8,   19.9,   20.6,   27.9,   36.1,   26.3,   18.2,   21.5,   28.3,  999.0,  999.0,   18.0,   23.3,   24.4,   17.4,   14.7,   18.6
1999/07/25 11:30,   44.8,   50.3,   52.8,   57.2,   58.0,   44.4,   38.4,   35.9,   37.0,   35.1,   29.8,   25.9,   46.7,   35.9,   27.1,   21.5,   22.0,   20.7,   24.0,   34.5,   20.1,   16.4,   21.4,  999.0,   20.8,   20.4,   16.4,   21.5,   21.5,   19.8,   16.8,   17.8
1999/07/25 11:40,   41.9,   49.3,   54.4,   56.9,   58.0,   45.8,   36.4,   33.4,   37.7,   35.5,   32.4,   27.6,   45.4,   38.3,   26.5,   21.9,   22.9,   20.6,   21.9,   32.4,   25.6,   18.3,   20.6,   26.8,   28.2,   27.2,   18.3,   24.2,   24.2,   23.5,   17.9,   16.6
1999/07/25 11:50,   41.8,   48.4,   53.1,   54.9,   59.0,   60.4,   46.7,   36.6,   40.7,   37.0,   32.1,   25.4,   35.6,   43.7,   24.5,   22.2,   21.0,   21.0,   28.7,   39.0,   31.3,   26.8,   25.1,   25.7,   20.3,   19.5,   17.4,   21.9,   25.1,   22.8,   19.3,   16.7
1999/07/25 12:00,   47.7,   52.4,   55.8,   56.5,   60.2,   62.4,   57.0,   50.5,   42.9,   37.7,   35.1,   33.6,   37.3,   25.1,   21.1,   17.9,  999.0,   26.8,   32.5,   30.2,   25.2,   30.6,   24.3,   25.2,   19.0,   18.6,   17.9,   20.9,   23.5,   18.7,   17.2,   16.5
1999/07/25 12:10,   44.8,   47.1,   54.4,   57.1,   57.2,   59.0,   54.0,   45.1,   36.1,   38.7,   33.4,   36.7,   29.0,   21.1,  999.0,   23.9,   21.1,   28.1,   31.8,   34.1,   32.1,   28.9,   36.2,   21.5,   18.0,  999.0,  999.0,   16.6,   25.5,   19.1,   16.6,   18.1
1999/07/25 12:20,   44.7,   50.3,   52.5,   57.0,   59.2,   59.5,   62.3,   51.0,   48.1,   45.2,   37.6,   35.5,   29.6,   24.7,   21.3,   21.8,   19.6,   20.8,   27.7,   30.8,   26.3,   19.7,   19.1,   20.0,   16.3,   15.4,  999.0,  999.0,   26.2,   23.0,   20.5,   17.5
1999/07/25 12:30,   45.0,   49.2,   49.7,   54.5,   55.7,   59.8,   56.8,   51.0,   44.0,   37.5,   36.4,   34.3,   37.1,   27.1,   17.8,   24.3,   24.3,   18.1,   30.7,   29.4,   22.6,   20.8,   17.6,   19.6,   22.5,   24.2,   22.3,   16.5,   23.9,   19.5,   21.2,  999.0
1999/07/25 12:40,   48.3,   49.4,   49.9,   52.7,   55.7,   57.9,   57.2,   49.4,   40.6,   37.9,   34.1,   37.7,   34.2,   22.7,   21.0,   21.9,   23.1,   28.8,   31.1,   31.6,   23.5,   30.2,   28.7,   18.1,   20.8,   24.1,   23.4,  999.0,   21.9,   21.2,   15.5,   18.7
1999/07/25 12:50,   46.1,   44.1,   50.4,   56.7,   55.2,   57.0,   55.2,   55.1,   56.0,   49.8,   44.5,   35.0,   37.3,   34.0,   24.9,   28.4,   28.4,   25.3,   31.4,   27.9,   23.2,   31.3,   28.6,   17.1,   20.2,   18.3,  999.0,   17.9,   21.7,   17.8,   17.2,   17.5
1999/07/25 13:00,   48.6,   44.7,   44.3,   49.9,   52.4,   54.8,   53.9,   55.9,   56.5,   58.0,   42.9,   36.1,   32.6,   24.8,   18.9,   26.8,   20.0,  999.0,  999.0,   18.9,   22.5,   36.1,   22.7,   16.9,  999.0,   16.1,   13.7,   17.0,   26.1,   18.2,   15.8,   16.8
1999/07/25 13:10,   53.3,   55.8,   50.5,   51.0,   53.9,   53.9,   53.8,   58.4,   58.2,   44.5,   37.2,   33.5,   27.5,   23.7,   23.1,   29.0,   27.1,   24.2,  999.0,   23.6,   23.3,   35.0,   22.3,   15.9,   16.5,   17.3,   19.5,   21.0,   21.1,   20.2,   17.2,   18.0
1999/07/25 13:20,   51.4,   55.1,   52.9,   51.2,   55.0,   54.6,   55.8,   57.6,   58.8,   56.9,   47.0,   33.8,   33.0,   26.3,   31.1,   26.6,   27.5,   32.2,  999.0,   22.0,   20.9,   33.7,   19.1,  999.0,   21.1,   20.7,   17.1,   17.0,   18.0,   17.6,   18.8,   17.4
1999/07/25 13:30,   44.4,   46.7,   50.3,   53.1,   52.9,   55.7,   57.6,   56.9,   57.5,   59.5,   52.2,   32.7,   34.8,   28.2,   24.6,   24.8,   26.2,   32.5,   23.0,   20.6,   19.6,   33.2,   22.7,   25.9,   24.5,   21.6,   24.4,   17.9,   20.7,   20.3,   18.6,   16.7
1999/07/25 13:40,   45.2,   46.5,   46.8,   47.9,   49.8,   53.1,   55.6,   52.6,   52.6,   53.5,   53.1,   55.5,   52.5,   51.6,   38.9,   33.1,   28.5,   23.4,   27.5,   23.5,  999.0,   32.0,   27.4,   26.1,   18.5,   22.0,   27.1,   20.0,   19.8,   19.0,   16.8,   15.3
1999/07/25 13:50,   49.6,   51.5,   46.8,   46.1,   46.8,   51.2,   54.6,   53.1,   55.1,   53.5,   51.8,   50.7,   47.3,   41.2,   39.0,   28.5,   24.8,   25.6,   24.3,   20.8,   29.7,   32.2,   26.9,   20.4,   16.5,   18.8,   20.2,  999.0,   18.1,  999.0,   15.1,   17.1
1999/07/25 14:00,   48.1,   46.2,   42.9,   43.8,   49.4,   52.5,   55.3,   54.0,   52.5,   53.5,   54.3,   51.7,   54.4,   41.4,   35.1,   27.0,   27.8,   26.4,   25.6,   24.0,   24.8,   33.5,   22.8,   19.6,   28.0,   18.1,  999.0,   18.6,   18.2,  999.0,   17.7,   17.5
1999/07/25 14:10,   46.1,   51.3,   47.7,   45.8,   48.4,   50.9,   53.4,   52.1,   51.3,   53.0,   54.6,   53.8,   46.2,   47.5,   31.2,   30.8,   25.8,   23.0,   23.1,   22.9,   23.8,   31.9,   26.9,   23.6,   24.5,   22.0,  999.0,   18.7,   21.7,   15.7,   15.0,   18.7